Weather History for KSGJ - September, 2013

Change the Weather History Date:

Saturday, September 7, 2013

  Actual Average Record
Temperature  
Mean Temperature 79 °F -  
Max Temperature 87 °F 83 °F 93 °F (1977)
Min Temperature 72 °F 71 °F 66 °F (1990)
Cooling Degree Days 14    
Growing Degree Days 29 (Base 50)    
Moisture  
Dew Point 71 °F    
Average Humidity 76    
Maximum Humidity 96    
Minimum Humidity 59    
Precipitation  
Precipitation 0.00 in - - ()
Sea Level Pressure  
Sea Level Pressure 30.01 in    
Wind  
Wind Speed 8 mph (North)    
Max Wind Speed 15 mph    
Max Gust Speed -    
Visibility 9 miles    
Events      
Averages and records for this station are not official NWS values.
T = Trace of Precipitation, MM = Missing Value Source: NWS Daily Summary

Daily Weather History Graph

Daily Weather History Graph

Search for Another Location

Airport or City:

Trip Planner

Search our weather history database for the weather conditions in past years. The results will help you decide how hot, cold, wet, or windy it might be!

Date:

Astronomy

Sep. 07, 2013 Rise Set
Actual Time 7:05 AM EDT 7:40 PM EDT
Civil Twilight 6:41 AM EDT 8:04 PM EDT
Nautical Twilight 6:13 AM EDT 8:32 PM EDT
Astronomical Twilight 5:44 AM EDT 9:01 PM EDT
Moon 9:04 AM EDT (9/7) 8:53 PM EDT (9/7)
Length of Visible Light 13h 22m
Length of Day
12h 34m
Waxing Crescent, 5% of the Moon is Illuminated
Sep 7
Waxing Crescent
Sep 12
First Quarter
Sep 19
Full
Sep 26
Last Quarter
Oct 4
New

Hourly Weather History & Observations

Time (EDT) Temp. Heat Index Dew Point Humidity Pressure Visibility Wind Dir Wind Speed Gust Speed Precip Events Conditions
12:58 AM 73.9 °F - 72.0 °F 93% 30.04 in 10.0 mi WNW 4.6 mph - N/A   Clear
1:58 AM 73.9 °F - 72.0 °F 93% 30.03 in 10.0 mi WNW 8.1 mph - N/A   Clear
2:58 AM 73.0 °F - 72.0 °F 96% 30.02 in 10.0 mi NW 6.9 mph - N/A   Clear
3:58 AM 73.0 °F - 71.1 °F 93% 30.02 in 10.0 mi NNW 5.8 mph - N/A   Clear
4:58 AM 72.0 °F - 70.0 °F 93% 30.01 in 10.0 mi NW 6.9 mph - N/A   Clear
5:58 AM 73.0 °F - 71.1 °F 93% 30.00 in 10.0 mi NW 8.1 mph - N/A   Clear
6:58 AM 73.0 °F - 71.1 °F 93% 30.02 in 10.0 mi NW 6.9 mph - N/A   Partly Cloudy
7:58 AM 73.9 °F - 71.1 °F 91% 30.02 in 5.0 mi NW 8.1 mph - N/A   Clear
8:58 AM 75.9 °F - 73.0 °F 91% 30.03 in 3.0 mi NNW 3.5 mph - N/A   Partly Cloudy
9:58 AM 84.0 °F 89.6 °F 72.0 °F 67% 30.04 in 5.0 mi NNE 11.5 mph - N/A   Haze
10:58 AM 84.9 °F 90.1 °F 71.1 °F 63% 30.05 in 5.0 mi NE 15.0 mph - N/A   Haze
11:58 AM 84.9 °F 90.1 °F 71.1 °F 63% 30.05 in 6.0 mi NNE 12.7 mph - N/A   Haze
12:58 PM 84.9 °F 89.4 °F 70.0 °F 61% 30.04 in 10.0 mi NNE 11.5 mph - N/A   Clear
1:58 PM 86.0 °F 90.7 °F 70.0 °F 59% 30.03 in 10.0 mi NNE 11.5 mph - N/A   Clear
2:58 PM 86.0 °F 90.7 °F 70.0 °F 59% 30.02 in 10.0 mi NNE 10.4 mph - N/A   Clear
3:58 PM 86.0 °F 91.5 °F 71.1 °F 61% 30.00 in 10.0 mi NNE 12.7 mph - N/A   Clear
4:58 PM 84.9 °F 90.7 °F 72.0 °F 65% 29.99 in 10.0 mi NE 13.8 mph - N/A   Partly Cloudy
5:58 PM 84.0 °F 89.0 °F 71.1 °F 65% 29.98 in 10.0 mi NE 13.8 mph - N/A   Partly Cloudy
6:58 PM 82.9 °F 87.5 °F 71.1 °F 67% 29.98 in 10.0 mi NNE 11.5 mph - N/A   Clear
7:46 PM 80.6 °F 84.6 °F 71.6 °F 74% 29.98 in 10.0 mi NE 10.4 mph - N/A   Mostly Cloudy
7:51 PM 80.6 °F 84.6 °F 71.6 °F 74% 29.98 in 10.0 mi NE 9.2 mph - N/A   Scattered Clouds
7:58 PM 81.0 °F 85.2 °F 72.0 °F 74% 29.99 in 10.0 mi NE 9.2 mph - N/A   Scattered Clouds
8:58 PM 81.0 °F 84.9 °F 71.1 °F 72% 30.00 in 10.0 mi NE 8.1 mph - N/A   Clear
9:58 PM 81.0 °F 85.2 °F 72.0 °F 74% 30.00 in 10.0 mi NE 9.2 mph - N/A   Clear
10:58 PM 81.0 °F 85.2 °F 72.0 °F 74% 30.00 in 10.0 mi NNE 8.1 mph - N/A   Clear
11:58 PM 81.0 °F 85.2 °F 72.0 °F 74% 30.00 in 10.0 mi NE 9.2 mph - N/A   Partly Cloudy